Weather History for Kermanshah, Iran

Change the Weather History Date:

Sunday, February 17, 2013

  Actual Average Record
Temperature  
Mean Temperature 42 °F -  
Max Temperature 55 °F 54 °F - ()
Min Temperature 28 °F 31 °F - ()
Degree Days  
Heating Degree Days 24    
Moisture  
Dew Point 23 °F    
Average Humidity 49    
Maximum Humidity 86    
Minimum Humidity 13    
Precipitation  
Precipitation 0.00 in 0.10 in - ()
Sea Level Pressure  
Sea Level Pressure 30.00 in    
Wind  
Wind Speed 7 mph ()    
Max Wind Speed 16 mph    
Max Gust Speed -    
Visibility 6.2 miles    
Events      
T = Trace of Precipitation, MM = Missing Value Source: Averaged Metar Reports

Daily Weather History Graph

Daily Weather History Graph

Search for Another Location

Airport:

Trip Planner

Search our weather history database for the weather conditions in past years. The results will help you decide how hot, cold, wet, or windy it might be!

Date:

Astronomy

Feb. 17, 2013 Rise Set
Actual Time 7:04 AM IRST 6:06 PM IRST
Civil Twilight 6:38 AM IRST 6:32 PM IRST
Nautical Twilight 6:09 AM IRST 7:01 PM IRST
Astronomical Twilight 5:40 AM IRST 7:30 PM IRST
Moon 11:01 AM IRST (2/17) No Moon Set
Length of Visible Light 11h 53m
Length of Day
11h 02m
Waxing Crescent, 45% of the Moon is Illuminated
Feb 17
Waxing Crescent
Feb 18
First Quarter
Feb 25
Full
Mar 5
Last Quarter
Mar 11
New

Hourly Weather History & Observations

Time (IRST) Temp. Windchill Dew Point Humidity Pressure Visibility Wind Dir Wind Speed Gust Speed Precip Events Conditions
12:30 AM 41.0 °F 34.3 °F 30.2 °F 65% 30.01 in - WNW 11.5 mph - N/A   Clear
1:30 AM 39.2 °F 32.0 °F 30.2 °F 70% 30.01 in - West 11.5 mph - N/A   Clear
2:30 AM 35.6 °F 28.6 °F 30.2 °F 81% 30.01 in - West 9.2 mph - N/A   Clear
3:30 AM 35.6 °F 28.6 °F 30.2 °F 81% 30.01 in - West 9.2 mph - N/A   Clear
4:30 AM 33.8 °F 26.4 °F 28.4 °F 81% 29.98 in - West 9.2 mph - N/A   Clear
5:30 AM 35.6 °F 29.9 °F 28.4 °F 75% 30.01 in - NW 6.9 mph - N/A   Clear
6:30 AM 30.2 °F 25.4 °F 24.8 °F 80% 30.01 in - ESE 4.6 mph - N/A   Clear
7:00 AM 28.4 °F 23.3 °F 24.8 °F 86% 30.01 in - East 4.6 mph - N/A   Clear
7:30 AM 28.4 °F - 24.8 °F 86% 30.04 in - Calm Calm - N/A   Clear
8:00 AM 30.2 °F 25.4 °F 26.6 °F 86% 30.04 in - WSW 4.6 mph - N/A   Clear
8:30 AM 35.6 °F - 30.2 °F 81% 30.04 in - Calm Calm - N/A   Clear
9:00 AM 39.2 °F - 30.2 °F 70% 30.06 in - Calm Calm - N/A   Clear
9:30 AM 41 °F - 31 °F 58% 30.06 in 6 mi WNW 4.5 mph - -  
9:30 AM 41.0 °F 38.0 °F 32.0 °F 70% 30.06 in - WNW 4.6 mph - N/A   Clear
10:00 AM 42.8 °F 40.1 °F 30.2 °F 61% 30.06 in - WNW 4.6 mph - N/A   Clear
10:30 AM 44.6 °F 42.2 °F 28.4 °F 53% 30.04 in - WNW 4.6 mph - N/A   Clear
11:00 AM 46.4 °F 44.3 °F 24.8 °F 43% 30.04 in - WSW 4.6 mph - N/A   Clear
11:30 AM 48.2 °F - 19.4 °F 32% 30.04 in - Calm Calm - N/A   Clear
1:00 PM 51.8 °F - 24.8 °F 35% 30.01 in 6.2 mi West 6.9 mph - N/A   Partly Cloudy
1:30 PM 53.6 °F - 24.8 °F 33% 29.98 in 6.2 mi ESE 4.6 mph - N/A   Partly Cloudy
2:00 PM 51.8 °F - 21.2 °F 30% 29.98 in 6.2 mi North 4.6 mph - N/A   Partly Cloudy
2:30 PM 53.6 °F - 23.0 °F 30% 29.98 in 6.2 mi WNW 6.9 mph - N/A   Partly Cloudy
3:00 PM 55.4 °F - 19.4 °F 25% 29.98 in 6.2 mi WSW 6.9 mph - N/A   Partly Cloudy
3:30 PM 55 °F - 18 °F 13% 29.96 in 6 mi WNW 6.7 mph - -   Scattered Clouds
3:30 PM 55.4 °F - 17.6 °F 23% 29.95 in 6.2 mi WNW 6.9 mph - N/A   Partly Cloudy
4:00 PM 55.4 °F - 15.8 °F 21% 29.95 in 6.2 mi West 11.5 mph - N/A   Partly Cloudy
4:20 PM 53.6 °F - 14.0 °F 21% 29.95 in 6.2 mi SW 11.5 mph - N/A   Partly Cloudy
4:30 PM 53.6 °F - 14.0 °F 21% 29.95 in 6.2 mi SW 11.5 mph - N/A   Partly Cloudy
5:00 PM 53.6 °F - 15.8 °F 22% 29.95 in 6.2 mi WSW 11.5 mph - N/A   Partly Cloudy
5:30 PM 53.6 °F - 15.8 °F 22% 29.95 in 6.2 mi West 11.5 mph - N/A   Partly Cloudy
6:00 PM 51.8 °F - 14.0 °F 22% 29.95 in 6.2 mi West 13.8 mph - N/A   Partly Cloudy
6:20 PM 50.0 °F - 10.4 °F 20% 29.95 in - West 11.5 mph - N/A   Clear
6:30 PM 50.0 °F - 10.4 °F 20% 29.95 in - West 11.5 mph - N/A   Clear
7:20 PM 46.4 °F 39.8 °F 23.0 °F 40% 29.95 in - WNW 16.1 mph - N/A   Clear
7:30 PM 46.4 °F 39.8 °F 23.0 °F 40% 29.95 in - WNW 16.1 mph - N/A   Clear
8:20 PM 42.8 °F 36.6 °F 23.0 °F 46% 29.98 in - WNW 11.5 mph - N/A   Clear
8:30 PM 42.8 °F 36.6 °F 23.0 °F 46% 29.98 in - WNW 11.5 mph - N/A   Clear
9:20 PM 41.0 °F 33.5 °F 23.0 °F 49% 29.98 in - West 13.8 mph - N/A   Clear
9:30 PM 41 °F - 24 °F 37% 30.02 in 6 mi West 13.4 mph - -  
9:30 PM 41.0 °F 33.5 °F 23.0 °F 49% 29.98 in - West 13.8 mph - N/A   Clear
10:30 PM 39.2 °F 33.0 °F 24.8 °F 56% 29.98 in - WNW 9.2 mph - N/A   Clear
11:20 PM 39.2 °F 33.0 °F 26.6 °F 61% 30.01 in - WNW 9.2 mph - N/A   Clear
11:30 PM 39.2 °F 33.0 °F 26.6 °F 61% 30.01 in - WNW 9.2 mph - N/A   Clear